When you browse on this site, cookies collect data to enhance your experience and personalize the content and advertising you see.
Visit our Privacy Policy to learn more. By continuing to use the site, you agree to this use of cookies and data.
  • In Österreich
  • Länderverzeichnis
  • Für 7 Tage
  • Wassertemperatur
  • Wetterkarte
  • News
  • Widgets
  • user-avatar
    Anmelden

    Stündliche Wetter Lisboa

    Heute, 25 Mai, Montag

    Zeit Temperatur Niederschläge Wind Luftdruck Luftfeuchtigkeit
    00:00 +17°C° 0 mm 3 m/S 763 mmHg 82%
    01:00 +17°C° 0 mm 3 m/S 763 mmHg 83%
    02:00 +17°C° 0 mm 2 m/S 763 mmHg 85%
    03:00 +17°C° 0 mm 2 m/S 763 mmHg 86%
    04:00 +17°C° 0 mm 2 m/S 762 mmHg 86%
    05:00 +17°C° 0 mm 2 m/S 762 mmHg 86%
    06:00 +19°C° 0 mm 2 m/S 762 mmHg 78%
    07:00 +21°C° 0 mm 2 m/S 763 mmHg 70%
    08:00 +25°C° 0 mm 2 m/S 763 mmHg 61%
    09:00 +26°C° 0 mm 3 m/S 762 mmHg 57%
    10:00 +28°C° 0 mm 4 m/S 762 mmHg 53%
    11:00 +29°C° 0 mm 4 m/S 762 mmHg 49%
    12:00 +30°C° 0 mm 5 m/S 762 mmHg 49%
    13:00 +30°C° 0 mm 5 m/S 762 mmHg 48%
    14:00 +30°C° 0 mm 6 m/S 761 mmHg 48%
    15:00 +29°C° 0 mm 6 m/S 761 mmHg 51%
    16:00 +27°C° 0 mm 6 m/S 761 mmHg 54%
    17:00 +26°C° 0 mm 6 m/S 760 mmHg 58%
    18:00 +23°C° 0 mm 5 m/S 760 mmHg 64%
    19:00 +21°C° 0 mm 4 m/S 761 mmHg 70%
    20:00 +19°C° 0 mm 4 m/S 761 mmHg 77%
    21:00 +19°C° 0 mm 3 m/S 761 mmHg 77%
    22:00 +19°C° 0 mm 2 m/S 761 mmHg 78%
    23:00 +19°C° 0 mm 2 m/S 760 mmHg 79%

    Morgen, 26 Mai, Dienstag

    Zeit Temperatur Niederschläge Wind Luftdruck Luftfeuchtigkeit
    00:00 +20°C° 0 mm 1 m/S 760 mmHg 78%
    01:00 +20°C° 0 mm 1 m/S 760 mmHg 77%
    02:00 +20°C° 0 mm 1 m/S 759 mmHg 76%
    03:00 +20°C° 0 mm 1 m/S 760 mmHg 76%
    04:00 +20°C° 0 mm 1 m/S 760 mmHg 76%
    05:00 +21°C° 0 mm 1 m/S 760 mmHg 76%
    06:00 +23°C° 0 mm 1 m/S 760 mmHg 70%
    07:00 +25°C° 0 mm 2 m/S 760 mmHg 64%
    08:00 +27°C° 0 mm 2 m/S 761 mmHg 58%
    09:00 +28°C° 0 mm 2 m/S 761 mmHg 53%
    10:00 +30°C° 0 mm 2 m/S 761 mmHg 49%
    11:00 +32°C° 0 mm 1 m/S 760 mmHg 44%
    12:00 +32°C° 0 mm 2 m/S 760 mmHg 44%
    13:00 +33°C° 0 mm 3 m/S 760 mmHg 43%
    14:00 +33°C° 0 mm 3 m/S 760 mmHg 43%
    15:00 +32°C° 0 mm 4 m/S 760 mmHg 46%
    16:00 +30°C° 0 mm 4 m/S 759 mmHg 50%
    17:00 +28°C° 0 mm 5 m/S 759 mmHg 53%
    18:00 +27°C° 0 mm 4 m/S 760 mmHg 55%
    19:00 +26°C° 0 mm 4 m/S 760 mmHg 57%
    20:00 +25°C° 0 mm 4 m/S 760 mmHg 59%
    21:00 +24°C° 0 mm 3 m/S 760 mmHg 59%
    22:00 +24°C° 0 mm 3 m/S 760 mmHg 59%
    23:00 +24°C° 0 mm 2 m/S 759 mmHg 58%

    übermorgen, 27 Mai, Mittwoch

    Zeit Temperatur Niederschläge Wind Luftdruck Luftfeuchtigkeit
    00:00 +23°C° 0 mm 2 m/S 759 mmHg 62%
    01:00 +23°C° 0 mm 2 m/S 759 mmHg 65%
    02:00 +23°C° 0 mm 2 m/S 759 mmHg 68%
    03:00 +21°C° 0 mm 2 m/S 759 mmHg 71%
    04:00 +21°C° 0 mm 2 m/S 759 mmHg 75%
    05:00 +20°C° 0 mm 3 m/S 759 mmHg 78%
    06:00 +22°C° 0 mm 3 m/S 759 mmHg 72%
    07:00 +25°C° 0 mm 3 m/S 759 mmHg 65%
    08:00 +26°C° 0 mm 3 m/S 760 mmHg 58%
    09:00 +28°C° 0 mm 3 m/S 760 mmHg 51%
    10:00 +30°C° 0 mm 3 m/S 759 mmHg 45%
    11:00 +33°C° 0 mm 3 m/S 759 mmHg 38%
    12:00 +33°C° 0 mm 3 m/S 759 mmHg 37%
    13:00 +33°C° 0 mm 3 m/S 759 mmHg 37%
    14:00 +34°C° 0 mm 3 m/S 759 mmHg 36%
    15:00 +31°C° 0 mm 3 m/S 759 mmHg 42%
    16:00 +29°C° 0 mm 4 m/S 759 mmHg 48%
    17:00 +27°C° 0 mm 4 m/S 759 mmHg 54%
    18:00 +26°C° 0 mm 4 m/S 759 mmHg 59%
    19:00 +25°C° 0 mm 3 m/S 759 mmHg 64%
    20:00 +22°C° 0 mm 3 m/S 759 mmHg 69%
    21:00 +22°C° 0 mm 3 m/S 759 mmHg 69%
    22:00 +23°C° 0 mm 2 m/S 759 mmHg 69%
    23:00 +23°C° 0 mm 2 m/S 759 mmHg 69%

    28 Mai, Donnerstag

    Zeit Temperatur Niederschläge Wind Luftdruck Luftfeuchtigkeit
    00:00 +21°C° 0 mm 2 m/S 759 mmHg 69%
    01:00 +22°C° 0 mm 1 m/S 759 mmHg 70%
    02:00 +22°C° 0 mm 1 m/S 759 mmHg 70%
    03:00 +22°C° 0 mm 1 m/S 759 mmHg 71%
    04:00 +22°C° 0 mm 1 m/S 759 mmHg 73%
    05:00 +22°C° 0 mm 1 m/S 759 mmHg 75%
    06:00 +23°C° 0 mm 2 m/S 759 mmHg 69%
    07:00 +25°C° 0 mm 2 m/S 759 mmHg 64%
    08:00 +27°C° 0 mm 2 m/S 759 mmHg 58%
    09:00 +28°C° 0 mm 2 m/S 759 mmHg 52%
    10:00 +30°C° 0 mm 2 m/S 759 mmHg 46%
    11:00 +31°C° 0 mm 3 m/S 759 mmHg 40%
    12:00 +33°C° 0 mm 3 m/S 759 mmHg 40%
    13:00 +33°C° 0 mm 3 m/S 758 mmHg 39%
    14:00 +33°C° 0 mm 3 m/S 758 mmHg 39%
    15:00 +31°C° 0 mm 3 m/S 758 mmHg 44%
    16:00 +29°C° 0 mm 4 m/S 758 mmHg 50%
    17:00 +28°C° 0 mm 4 m/S 758 mmHg 55%
    18:00 +26°C° 0 mm 4 m/S 758 mmHg 58%
    19:00 +25°C° 0 mm 4 m/S 758 mmHg 62%
    20:00 +24°C° 0 mm 3 m/S 759 mmHg 65%
    21:00 +22°C° 0 mm 3 m/S 759 mmHg 65%
    22:00 +23°C° 0 mm 2 m/S 759 mmHg 66%
    23:00 +23°C° 0 mm 1 m/S 759 mmHg 66%

    29 Mai, Freitag

    Zeit Temperatur Niederschläge Wind Luftdruck Luftfeuchtigkeit
    00:00 +21°C° 0 mm 2 m/S 758 mmHg 66%
    01:00 +21°C° 0 mm 2 m/S 758 mmHg 66%
    02:00 +21°C° 0 mm 2 m/S 758 mmHg 66%
    03:00 +21°C° 0 mm 2 m/S 758 mmHg 67%
    04:00 +21°C° 0 mm 2 m/S 758 mmHg 68%
    05:00 +22°C° 0 mm 1 m/S 758 mmHg 70%
    06:00 +24°C° 0 mm 2 m/S 758 mmHg 63%
    07:00 +26°C° 0 mm 2 m/S 758 mmHg 57%
    08:00 +28°C° 0 mm 2 m/S 758 mmHg 50%
    09:00 +29°C° 0 mm 2 m/S 758 mmHg 46%
    10:00 +31°C° 0 mm 3 m/S 758 mmHg 42%
    11:00 +34°C° 0 mm 3 m/S 757 mmHg 38%
    12:00 +34°C° 0 mm 4 m/S 757 mmHg 39%
    13:00 +34°C° 0 mm 4 m/S 757 mmHg 39%
    14:00 +34°C° 0 mm 5 m/S 756 mmHg 40%
    15:00 +32°C° 0 mm 6 m/S 756 mmHg 44%
    16:00 +30°C° 0 mm 6 m/S 756 mmHg 48%
    17:00 +28°C° 0 mm 7 m/S 756 mmHg 52%
    18:00 +26°C° 0 mm 6 m/S 756 mmHg 59%
    19:00 +23°C° 0 mm 5 m/S 757 mmHg 66%
    20:00 +21°C° 0 mm 5 m/S 757 mmHg 73%
    21:00 +20°C° 0 mm 4 m/S 757 mmHg 74%
    22:00 +20°C° 0 mm 4 m/S 757 mmHg 76%
    23:00 +19°C° 0 mm 3 m/S 757 mmHg 77%

    30 Mai, Samstag

    Zeit Temperatur Niederschläge Wind Luftdruck Luftfeuchtigkeit
    00:00 +19°C° 0 mm 3 m/S 757 mmHg 78%
    01:00 +19°C° 0 mm 3 m/S 756 mmHg 79%
    02:00 +18°C° 0 mm 3 m/S 756 mmHg 81%
    03:00 +18°C° 0 mm 3 m/S 756 mmHg 81%
    04:00 +18°C° 0 mm 3 m/S 756 mmHg 82%
    05:00 +18°C° 0 mm 3 m/S 756 mmHg 83%
    06:00 +20°C° 0 mm 3 m/S 756 mmHg 75%
    07:00 +22°C° 0 mm 3 m/S 756 mmHg 67%
    08:00 +25°C° 0 mm 3 m/S 756 mmHg 58%
    09:00 +27°C° 0 mm 3 m/S 756 mmHg 53%
    10:00 +29°C° 0 mm 3 m/S 756 mmHg 48%
    11:00 +30°C° 0 mm 3 m/S 756 mmHg 43%
    12:00 +30°C° 0 mm 4 m/S 756 mmHg 43%
    13:00 +30°C° 0 mm 4 m/S 756 mmHg 43%
    14:00 +30°C° 0 mm 5 m/S 755 mmHg 42%
    15:00 +29°C° 0 mm 5 m/S 755 mmHg 46%
    16:00 +28°C° 0 mm 5 m/S 755 mmHg 50%
    17:00 +26°C° 0 mm 5 m/S 755 mmHg 54%
    18:00 +23°C° 0 mm 5 m/S 755 mmHg 60%
    19:00 +22°C° 0 mm 4 m/S 755 mmHg 65%
    20:00 +20°C° 0 mm 4 m/S 755 mmHg 71%
    21:00 +19°C° 0 mm 4 m/S 755 mmHg 73%
    22:00 +19°C° 0 mm 3 m/S 756 mmHg 75%
    23:00 +18°C° 0 mm 2 m/S 756 mmHg 77%
    Mehr zeigen